Oxford, NC

2:03 AM EST on November 17, 2019 (GMT -0500)
Henderson-Oxford

Weather History for KHNZ - September, 2019

Change the Weather History Date:

Monday, September 16, 2019

  Actual Average (WUND) Record (WUND)
Temperature  
Mean Temperature 76 °F -  
Max Temperature 88 °F - - (-1)
Min Temperature 63 °F - - (-1)
Cooling Degree Days 10    
Growing Degree Days 26 (Base 50)    
Moisture  
Dew Point 63 °F    
Average Humidity 73    
Maximum Humidity 99    
Minimum Humidity 30    
Precipitation  
Precipitation 0.00 in - - ()
Sea Level Pressure  
Sea Level Pressure 30.05 in    
Wind  
Wind Speed 1 mph (NE)    
Max Wind Speed 10 mph    
Max Gust Speed -    
Visibility 6 miles    
Events Fog    
Averages and records for this station are not official NWS values.
T = Trace of Precipitation, MM = Missing Value Source: NWS Daily Summary

Daily Weather History Graph

Daily Weather History Graph

Search for Another Location

Airport or City:

Astronomy

Sep. 16, 2019 Rise Set
Actual Time 6:57 AM EDT 7:20 PM EDT
Civil Twilight 6:31 AM EDT 7:46 PM EDT
Nautical Twilight 6:00 AM EDT 8:16 PM EDT
Astronomical Twilight 5:30 AM EDT 8:47 PM EDT
Moon 8:57 PM EDT (9/16) 8:59 AM EDT (9/16)
Length of Visible Light 13h 14m
Length of Day
12h 23m
Waning Gibbous, 94% of the Moon is Illuminated
Sep 16
Waning Gibbous
Sep 21
Last Quarter
Sep 28
New
Oct 5
First Quarter
Oct 13
Full

Hourly Weather History & Observations

Time (EDT) Temp. Heat Index Dew Point Humidity Pressure Visibility Wind Dir Wind Speed Gust Speed Precip Events Conditions
12:15 AM 67.6 °F - 67.1 °F 98% 30.11 in 7.0 mi Calm Calm - N/A   Clear
12:35 AM 67.8 °F - 67.1 °F 98% 30.11 in 7.0 mi Calm Calm - N/A   Clear
12:55 AM 68.0 °F - 67.1 °F 97% 30.11 in 7.0 mi Calm Calm - N/A   Clear
1:15 AM 68.0 °F - 67.1 °F 97% 30.10 in 7.0 mi Calm Calm - N/A   Clear
1:35 AM 66.9 °F - 66.0 °F 97% 30.10 in 5.0 mi Calm Calm - N/A   Clear
1:55 AM 66.7 °F - 66.2 °F 98% 30.10 in 4.0 mi Calm Calm - N/A   Clear
2:15 AM 66.4 °F - 65.8 °F 98% 30.09 in 3.0 mi Calm Calm - N/A   Clear
2:35 AM 66.0 °F - 65.5 °F 98% 30.09 in 0.8 mi Calm Calm - N/A   Mist
3:15 AM 64.9 °F - 64.6 °F 99% 30.09 in 1.0 mi Calm Calm - N/A   Mist
3:35 AM 65.5 °F - 64.9 °F 98% 30.09 in 3.0 mi Calm Calm - N/A   Clear
4:15 AM 64.2 °F - 63.9 °F 99% 30.09 in 0.5 mi Calm Calm - N/A Fog Fog
4:35 AM 63.7 °F - 63.3 °F 99% 30.08 in 0.5 mi Calm Calm - N/A Fog Fog
5:15 AM 63.5 °F - 63.0 °F 98% 30.08 in 0.5 mi Calm Calm - N/A Fog Fog
5:35 AM 63.5 °F - 63.1 °F 99% 30.08 in 0.2 mi Calm Calm - N/A Fog Fog
5:55 AM 63.5 °F - 63.0 °F 98% 30.09 in 0.2 mi Calm Calm - N/A Fog Fog
6:15 AM 63.3 °F - 63.0 °F 99% 30.08 in 0.2 mi Calm Calm - N/A Fog Fog
6:35 AM 64.0 °F - 63.7 °F 99% 30.09 in 0.5 mi Calm Calm - N/A Fog Fog
7:15 AM 64.9 °F - 64.6 °F 99% 30.09 in 0.2 mi Calm Calm - N/A Fog Fog
7:35 AM 65.3 °F - 64.9 °F 99% 30.09 in 0.2 mi Calm Calm - N/A Fog Fog
7:55 AM 65.8 °F - 65.5 °F 99% 30.10 in 0.2 mi Calm Calm - N/A Fog Fog
8:15 AM 66.6 °F - 66.2 °F 99% 30.10 in 0.2 mi Calm Calm - N/A Fog Fog
9:35 AM 68.7 °F - 68.5 °F 99% 30.11 in 1.8 mi Calm Calm - N/A   Overcast
9:55 AM 69.4 °F - 69.3 °F 99% 30.11 in 7.0 mi Calm Calm - N/A   Overcast
10:15 AM 70.9 °F - 70.2 °F 98% 30.11 in 10.0 mi Calm Calm - N/A   Scattered Clouds
10:35 AM 73.4 °F - 68.0 °F 83% 30.11 in 10.0 mi Calm Calm - N/A   Clear
11:15 AM 79.7 °F - 66.6 °F 64% 30.09 in 10.0 mi Calm Calm - N/A   Clear
11:35 AM 80.4 °F 82.1 °F 64.6 °F 58% 30.09 in 10.0 mi Calm Calm - N/A   Clear
11:55 AM 81.9 °F 83.2 °F 63.5 °F 54% 30.08 in 10.0 mi Calm Calm - N/A   Clear
12:15 PM 82.2 °F 83.0 °F 61.9 °F 50% 30.07 in 10.0 mi ENE 6.9 mph - N/A   Clear
1:15 PM 86.0 °F 85.7 °F 59.9 °F 41% 30.05 in 10.0 mi North 8.1 mph - N/A   Clear
1:35 PM 86.7 °F 86.5 °F 60.3 °F 41% 30.04 in 10.0 mi NNE 4.6 mph - N/A   Clear
1:55 PM 86.2 °F 85.9 °F 59.9 °F 41% 30.04 in 10.0 mi East 4.6 mph - N/A   Clear
2:15 PM 86.9 °F 86.1 °F 58.3 °F 38% 30.03 in 10.0 mi ENE 5.8 mph - N/A   Clear
2:35 PM 87.6 °F 86.7 °F 58.3 °F 37% 30.02 in 10.0 mi ENE 8.1 mph - N/A   Clear
3:15 PM 88.2 °F 87.3 °F 58.6 °F 37% 30.00 in 10.0 mi NNE 4.6 mph - N/A   Clear
3:55 PM 88.5 °F 87.1 °F 57.0 °F 34% 29.99 in 10.0 mi NE 8.1 mph - N/A   Clear
4:15 PM 88.9 °F 86.7 °F 53.2 °F 30% 29.98 in 10.0 mi East 10.4 mph - N/A   Clear
5:15 PM 87.8 °F 86.1 °F 55.6 °F 33% 29.97 in 10.0 mi Calm Calm - N/A   Clear
5:35 PM 87.8 °F 85.9 °F 54.7 °F 32% 29.97 in 10.0 mi Calm Calm - N/A   Clear
5:55 PM 87.6 °F 85.9 °F 55.4 °F 33% 29.97 in 10.0 mi Calm Calm - N/A   Clear
6:15 PM 86.9 °F 85.1 °F 54.9 °F 33% 29.97 in 10.0 mi Calm Calm - N/A   Clear
6:35 PM 85.1 °F 84.1 °F 57.0 °F 38% 29.97 in 10.0 mi Calm Calm - N/A   Clear
7:15 PM 81.1 °F 81.5 °F 59.0 °F 47% 29.97 in 10.0 mi Calm Calm - N/A   Clear
7:35 PM 79.9 °F - 59.0 °F 49% 29.98 in 10.0 mi Calm Calm - N/A   Clear
7:55 PM 78.3 °F - 60.6 °F 54% 29.98 in 10.0 mi Calm Calm - N/A   Clear
8:15 PM 77.4 °F - 61.9 °F 59% 29.98 in 10.0 mi Calm Calm - N/A   Clear
9:15 PM 74.3 °F - 62.2 °F 66% 29.99 in 10.0 mi Calm Calm - N/A   Clear
9:35 PM 73.8 °F - 62.6 °F 68% 29.99 in 3.0 mi Calm Calm - N/A   Haze
9:55 PM 73.6 °F - 62.1 °F 67% 29.99 in 0.5 mi Calm Calm - N/A   Haze
10:15 PM 73.4 °F - 61.9 °F 67% 29.99 in 0.5 mi Calm Calm - N/A   Haze
11:15 PM 70.0 °F - 62.2 °F 76% 30.00 in 1.0 mi Calm Calm - N/A   Haze
11:35 PM 68.7 °F - 62.6 °F 81% 30.00 in 1.0 mi Calm Calm - N/A   Haze
11:55 PM 68.0 °F - 62.6 °F 83% 30.00 in 0.5 mi Calm Calm - N/A   Haze